EW2027 Weather Reports


Display with metric or nautical units.
time (UTC)temp
F
wind
direction
speed
MPH
gust
MPH
rain 1hr
in
rain 24hr
in
rain mn
in
humidity
%
barometer
mb
20260831180703 99 168 5.0 13.0 0.00 0.00 0.00 38 1017.2
20260831180203 99 162 5.0 14.0 0.00 0.00 0.00 41 1017.3
20260831173203 98 135 2.0 12.0 0.00 0.00 0.00 43 1017.6
20260831170703 97 169 3.0 7.0 0.00 0.00 0.00 45 1017.9
20260831163703 95 163 3.0 10.0 0.00 0.00 0.00 49 1018.0
20260831163203 95 162 5.0 12.0 0.00 0.00 0.00 49 1018.1
20260831160203 93 163 5.0 12.0 0.00 0.00 0.00 50 1018.1
20260831153703 91 165 4.0 10.0 0.00 0.00 0.00 56 1018.3
20260831153203 90 137 4.0 9.0 0.00 0.00 0.00 55 1018.3
20260831150703 88 172 1.0 3.0 0.00 0.00 0.00 58 1018.5
20260831150203 87 171 2.0 9.0 0.00 0.00 0.00 59 1018.5
20260831143703 84 185 1.0 5.0 0.00 0.00 0.00 61 1018.6
20260831143205 84 176 2.0 9.0 0.00 0.00 0.00 61 1018.6
20260831140703 81 165 4.0 8.0 0.00 0.00 0.00 64 1018.6
20260831140203 81 154 4.0 6.0 0.00 0.00 0.00 65 1018.6
20260831133703 79 161 2.0 3.0 0.00 0.00 0.00 65 1018.5
20260831133203 79 162 2.0 6.0 0.00 0.00 0.00 65 1018.5
20260831130703 77 156 2.0 5.0 0.00 0.00 0.00 66 1018.4
20260831130204 77 146 2.0 5.0 0.00 0.00 0.00 67 1018.4
20260831123703 74 145 1.0 3.0 0.00 0.00 0.00 70 1018.2
20260831123204 74 143 1.0 3.0 0.00 0.00 0.00 70 1018.0
20260831120703 74 144 1.0 3.0 0.00 0.00 0.00 70 1017.6
20260831113703 75 145 0.0 2.0 0.00 0.00 0.00 68 1017.2
20260831113203 75 145 0.0 3.0 0.00 0.00 0.00 68 1017.1
20260831110703 76 146 1.0 1.0 0.00 0.00 0.00 65 1016.8
20260831110204 76 146 1.0 3.0 0.00 0.00 0.00 65 1016.8
20260831103703 76 145 1.0 2.0 0.00 0.00 0.00 65 1016.6
20260831103203 77 146 2.0 5.0 0.00 0.00 0.00 65 1016.5
20260831100703 77 145 2.0 3.0 0.00 0.00 0.00 64 1016.3
20260831100203 77 145 1.0 6.0 0.00 0.00 0.00 64 1016.3
20260831093703 77 153 1.0 3.0 0.00 0.00 0.00 65 1016.4
20260831093203 77 153 0.0 3.0 0.00 0.00 0.00 65 1016.2
20260831090203 78 154 0.0 3.0 0.00 0.00 0.00 64 1015.9
20260831083703 78 156 0.0 0.0 0.00 0.00 0.00 64 1015.7
20260831083203 78 156 0.0 1.0 0.00 0.00 0.00 63 1015.7
20260831080704 79 156 0.0 1.0 0.00 0.00 0.00 61 1015.7
20260831080203 80 156 0.0 1.0 0.00 0.00 0.00 61 1015.8
20260831073704 81 156 0.0 3.0 0.00 0.00 0.00 58 1015.7
20260831073203 81 156 2.0 5.0 0.00 0.00 0.00 57 1015.7
20260831070703 82 151 2.0 5.0 0.00 0.00 0.00 57 1015.7
20260831070204 82 155 3.0 5.0 0.00 0.00 0.00 56 1015.7
20260831063203 83 162 2.0 7.0 0.00 0.00 0.00 55 1015.5
20260831060703 84 165 3.0 7.0 0.00 0.00 0.00 54 1015.5
20260831060203 84 166 1.0 8.0 0.00 0.00 0.00 54 1015.5
20260831053703 84 155 3.0 8.0 0.00 0.00 0.00 54 1015.2
20260831050703 85 161 3.0 6.0 0.00 0.00 0.00 53 1015.2
20260831050204 85 154 3.0 8.0 0.00 0.00 0.00 53 1015.2
20260831043704 86 154 6.0 8.0 0.00 0.00 0.00 52 1015.1
20260831043203 86 145 4.0 9.0 0.00 0.00 0.00 51 1015.1
20260831040703 86 151 4.0 6.0 0.00 0.00 0.00 51 1015.1
20260831040204 86 123 3.0 8.0 0.00 0.00 0.00 51 1015.1
20260831033703 87 154 4.0 6.0 0.00 0.00 0.00 50 1015.0
20260831033204 87 153 5.0 9.0 0.00 0.00 0.00 50 1014.9
20260831030704 87 169 3.0 6.0 0.00 0.00 0.00 49 1014.7
20260831030204 88 147 3.0 6.0 0.00 0.00 0.00 48 1014.7
20260831023204 89 151 3.0 6.0 0.00 0.00 0.00 46 1014.1
20260831020703 90 158 1.0 3.0 0.00 0.00 0.00 44 1013.7
20260831020203 91 159 1.0 5.0 0.00 0.00 0.00 44 1013.8
20260831013204 92 161 2.0 7.0 0.00 0.00 0.00 41 1013.4
20260831010703 94 162 2.0 5.0 0.00 0.00 0.00 40 1013.3
20260831010204 94 165 3.0 10.0 0.00 0.00 0.00 40 1013.3
20260831003703 96 156 3.0 7.0 0.00 0.00 0.00 38 1013.1
20260831003203 96 163 4.0 12.0 0.00 0.00 0.00 37 1013.1
20260831000204 98 141 4.0 15.0 0.00 0.00 0.00 37 1013.1
20260830233704 99 141 6.0 14.0 0.00 0.00 0.00 36 1013.0
20260830233203 99 138 7.0 15.0 0.00 0.00 0.00 36 1013.0
20260830230203 100 161 6.0 16.0 0.00 0.00 0.00 36 1013.0
20260830223704 101 161 5.0 10.0 0.00 0.00 0.00 35 1012.9
20260830220704 101 156 5.0 16.0 0.00 0.00 0.00 33 1012.9
20260830213703 101 181 6.0 13.0 0.00 0.00 0.00 35 1013.2
20260830213203 101 155 7.0 14.0 0.00 0.00 0.00 34 1013.1
20260830210204 102 154 3.0 12.0 0.00 0.00 0.00 34 1013.5
20260830203203 101 166 6.0 14.0 0.00 0.00 0.00 33 1014.0
20260830200703 101 156 7.0 14.0 0.00 0.00 0.00 35 1014.5
20260830200203 101 176 4.0 12.0 0.00 0.00 0.00 35 1014.5
20260830193704 101 208 3.0 10.0 0.00 0.00 0.00 37 1014.6
20260830193203 101 172 6.0 16.0 0.00 0.00 0.00 37 1014.7
20260830190204 100 157 5.0 17.0 0.00 0.00 0.00 38 1014.9
20260830183704 100 168 5.0 13.0 0.00 0.00 0.00 38 1015.1
20260830183203 100 184 3.0 13.0 0.00 0.00 0.00 37 1015.2